User: anonymous   Login
Location: Geremba
(10.4250°N, 67.2394°W)
Time: 14:10:02
(UTC+00:00)
Language:

Cosmos 2218 Rocket - Orbit

View from above orbital plane
View from above orbital plane
View from above satellite
View from above satellite

Ground track
Ground track

The orbit data is extracted from the following two-line orbital elements,

1 22208U 92073B   24202.94005302  .00000120  00000-0  10887-3 0  9998
2 22208  82.9165 256.4718 0034514  14.5421 158.9427 13.75302975591816
Epoch (UTC): 20 July 2024 22:33:40
Eccentricity: 0.0034514
inclination: 82.9165°
perigee height: 955 km
apogee height: 1006 km
right ascension of ascending node: 256.4718°
argument of perigee: 14.5421°
revolutions per day: 13.75302975
mean anomaly at epoch: 158.9427°
orbit number at epoch: 59181

The dashed part of the orbit path shows where the satellite is in the earth's shadow,  

DLR